Terminal Aerodrome Forecast
Issued by NWS

Home | Current Version | Previous Version | Text Only | Print | Product List | Glossary On
Versions: 1 2 3 4 5 6 7 8 9 10 11 12 13 14 15 16
000
FTUS44 KLIX 301300 AAA
TAFMCB
TAF AMD
KMCB 301318Z 3013/3112 12006KT P6SM SCT004 BKN020
      TEMPO 3013/3015 BKN004
     FM301500 17009KT 6SM -SHRA BKN025 OVC050
      TEMPO 3017/3021 3SM TSRA BR BKN020CB
     FM310100 18005KT P6SM BKN050=

USA.gov is the U.S. government's official web portal to all federal, state and local government web resources and services.